Location: Besigheim
(48.9980°N, 9.1427°E)
Time: 16:20:15
(UTC+00:00)

SL-24 R/B - RUBIN 2 - Pass Details

Date: 17 February 2026
Orbit: 603 x 984 km, 64.6° (Epoch: 8 March)

Event Time Altitude Azimuth Distance (km) Brightness Sun altitude
Exits shadow 03:33:47 18° 4° (N) 1,581 5.8 -29.1°
Drops below altitude 10° 03:35:24 10° 22° (NNE) 1,999 6.6 -28.9°
Sets 03:38:01 0° 37° (NE) 2,881 7.7 -28.4°
